SL-14 R/B, 22693

Orbit data source: Space-Track

SL-14 R/B, 22693 is space debris in LEO originally from a launch on Thu, 24 Jun 1993 UTC launched from the Plesetsk Missile And Space Complex (PKMTR). Debris objects in space refer to the collection of defunct objects orbiting the Earth. Examples of debris include non-operational satellites, rocket bodies, and fragments generated from explosions, collisions, or faulty payload assembly.

Loading next visibility...
SL-14 R/B details
Identifier
22693, 1993-038G
Orbit
LEO
Last TLE update4 hours ago
Origin
Flag of CISVKS (CIS)
ManufacturerYuzhnoe
MissionSpacecraft
Bus & MotorS5M, Unknown motor
Mass1,600 kg wet, 1,600 kg dry
Launch date (UTC)
1993-06-24 (32 years ago)
Launch vehicleUnknown
Launch site
Plesetsk Missile And Space Complex (PKMTR)
Object type
Payload
Rocket body
Debris
Shape & HBRCyl, 2.7 m
Radar Cross Section7.351 m², Large (>1 m²)

Expand to show TLE details & history

TLE from 4 hours ago
0 SL-14 R/B
1 22693U 93038G   25036.19484154  .00000014  00000-0  23950-4 0  9995
2 22693  82.5873 302.1361 0045956 356.0062 159.3226 12.54829195448947
Epoch: 2025-02-05T04:40Z
Definitive object data (Epoch: 2025-02-05T04:40:34.309Z)
Latitude24.29096°
Longitude-86.94591°
Altitude1,480.802 km
Speed7.11 km/s
True Right ascension07h 55m 08s
True Declination24° 10' 27"
Sunlit
Object was in full shadow at TLE epoch
Visualization TLE readout
Latitude-61.66733°
Longitude-69.81516°
Altitude1,482.064 km
Speed7.116 km/s
Apparent Right ascension02h 13m 14s
Apparent Declination-77° 23' 21"
Sunlit
Object is in daylight
Visualization observer readout
Local Sidereal Time11:00:42
Azimuth193.941° SSW
Elevation-47.556°
Doppler factor1
Orbital elements
Apogee altitude1,477.628 km
Perigee altitude1,405.755 km
Semi-major axis7,819.828 km
Eccentricity0.0045956
Inclination82.5873°
RAAN302.1361°
Arg. of periapsis356.0062°
True anomaly159.50756°
Mean anomaly159.3226°
Eccentric anomaly159.41518°
Mean motion3.13868 °/min
BSTAR0.00002395
Orbital period114.7 mins
Loading maneuver chart data...
Loading historical data...
Loading historical data...
Loading historical data...
Loading historical data...
Loading historical data...
Loading historical data...
Loading historical data...

SL-14 R/B Visibility forecast

Observer location: undefined°, undefined

Span
Click to sort rows by Start time (UTC) header in descending order
Start Az.
Max El. time (UTC)
Max El. Az.
Max El.
End time (UTC)
End Az.
14 mins2025-02-05 17:20:07.109Z150.026° SSE2025-02-05 17:27:07.109Z90.532° ESE31.974°2025-02-05 17:34:07.109Z25.019° NE
13 mins2025-02-05 19:17:07.109Z223.28° SW2025-02-05 19:23:07.109Z288.948° WNW34.233°2025-02-05 19:30:07.109Z353.2° N
8 mins2025-02-06 03:27:07.109Z32.834° NE2025-02-06 03:31:07.109Z63.266° ENE15.849°2025-02-06 03:35:07.109Z93.048° ESE
15 mins2025-02-06 05:21:07.109Z354.844° N2025-02-06 05:28:07.109Z96.782° ESE44.768°2025-02-06 05:36:07.109Z170.943° S
10 mins2025-02-06 07:18:07.109Z315.928° NNW2025-02-06 07:22:07.109Z285.393° WNW18.183°2025-02-06 07:28:07.109Z240.694° WSW
|